contact:dominique.lefevre@mio.osupytheas.fr, maurice.libes@osupytheas.fr, didier.mallarino@osupytheas.fr
Project:EMSO http://www.emso-fr.org/EMSO-France
Depth: 2436.0 m
Title:EMSO Ligure Ouest : Data MII capteur CSTAR
DateTime,Latitude,Longitude,Instrument_Serial,Reference_Counts,Signal_Counts,Corrected_Signal_raw_counts,Calculated_Beam_c_inverse_meters,Internal_thermistor_counts
DateTime,Latitude,Longitude,Instrument_Serial,Reference_Counts,Signal_Counts,Corrected_Signal_raw_counts,Calculated_Beam_c_inverse_meters,Internal_thermistor_counts
2019-10-31T00:00:01,42.805,6.029,CST-1368DR,7476,10475,15328,0.074,551
2019-10-31T00:03:02,42.805,6.029,CST-1368DR,7476,10476,15329,0.074,551
2019-10-31T00:06:04,42.805,6.029,CST-1368DR,7476,10476,15329,0.074,551
2019-10-31T00:09:06,42.805,6.029,CST-1368DR,7476,10475,15327,0.075,551
2019-10-31T00:12:07,42.805,6.029,CST-1368DR,7476,10476,15328,0.074,551
2019-10-31T00:15:09,42.805,6.029,CST-1368DR,7476,10477,15330,0.074,551
2019-10-31T00:18:10,42.805,6.029,CST-1368DR,7476,10475,15328,0.074,551
2019-10-31T00:21:12,42.805,6.029,CST-1368DR,7476,10474,15326,0.075,551
2019-10-31T00:24:14,42.805,6.029,CST-1368DR,7476,10476,15329,0.074,551
2019-10-31T00:27:15,42.805,6.029,CST-1368DR,7476,10475,15327,0.075,551
2019-10-31T00:30:17,42.805,6.029,CST-1368DR,7476,10473,15325,0.075,551
2019-10-31T00:33:19,42.805,6.029,CST-1368DR,7476,10475,15328,0.074,551
2019-10-31T00:36:20,42.805,6.029,CST-1368DR,7476,10476,15328,0.074,551
2019-10-31T00:39:22,42.805,6.029,CST-1368DR,7476,10475,15327,0.075,550
2019-10-31T00:42:24,42.805,6.029,CST-1368DR,7476,10475,15328,0.074,550
2019-10-31T00:45:25,42.805,6.029,CST-1368DR,7476,10476,15328,0.074,551
2019-10-31T00:48:27,42.805,6.029,CST-1368DR,7476,10475,15327,0.075,551
2019-10-31T00:51:28,42.805,6.029,CST-1368DR,7476,10474,15326,0.075,551
2019-10-31T00:54:30,42.805,6.029,CST-1368DR,7476,10476,15329,0.074,551
2019-10-31T00:57:32,42.805,6.029,CST-1368DR,7476,10476,15329,0.074,550
2019-10-31T01:00:33,42.805,6.029,CST-1368DR,7476,10475,15328,0.074,551
2019-10-31T01:03:35,42.805,6.029,CST-1368DR,7476,10475,15327,0.075,551
2019-10-31T01:06:37,42.805,6.029,CST-1368DR,7476,10473,15325,0.075,551
2019-10-31T01:09:39,42.805,6.029,CST-1368DR,7476,10474,15326,0.075,551
2019-10-31T01:12:40,42.805,6.029,CST-1368DR,7476,10475,15327,0.075,551
2019-10-31T01:15:42,42.805,6.029,CST-1368DR,7476,10475,15328,0.074,551
2019-10-31T01:18:43,42.805,6.029,CST-1368DR,7476,10475,15328,0.074,551
2019-10-31T01:21:45,42.805,6.029,CST-1368DR,7475,10475,15329,0.074,551
2019-10-31T01:24:47,42.805,6.029,CST-1368DR,7475,10475,15329,0.074,551
2019-10-31T01:27:48,42.805,6.029,CST-1368DR,7475,10475,15329,0.074,551
2019-10-31T01:30:50,42.805,6.029,CST-1368DR,7476,10475,15328,0.074,551
2019-10-31T01:33:52,42.805,6.029,CST-1368DR,7475,10473,15327,0.075,551
2019-10-31T01:36:53,42.805,6.029,CST-1368DR,7476,10474,15326,0.075,551
2019-10-31T01:39:55,42.805,6.029,CST-1368DR,7476,10474,15326,0.075,551
2019-10-31T01:42:57,42.805,6.029,CST-1368DR,7475,10475,15329,0.074,551
2019-10-31T01:45:58,42.805,6.029,CST-1368DR,7475,10474,15327,0.075,551
2019-10-31T01:49:00,42.805,6.029,CST-1368DR,7475,10472,15325,0.075,550
2019-10-31T01:52:02,42.805,6.029,CST-1368DR,7476,10475,15327,0.075,550
2019-10-31T01:55:03,42.805,6.029,CST-1368DR,7475,10475,15329,0.074,551
2019-10-31T01:58:05,42.805,6.029,CST-1368DR,7475,10475,15329,0.074,551
2019-10-31T02:01:06,42.805,6.029,CST-1368DR,7475,10475,15329,0.074,551
2019-10-31T02:04:08,42.805,6.029,CST-1368DR,7475,10475,15329,0.074,551
2019-10-31T02:07:10,42.805,6.029,CST-1368DR,7475,10474,15328,0.074,551
2019-10-31T02:10:11,42.805,6.029,CST-1368DR,7475,10475,15329,0.074,551
2019-10-31T02:13:13,42.805,6.029,CST-1368DR,7475,10474,15328,0.074,551
2019-10-31T02:16:15,42.805,6.029,CST-1368DR,7475,10475,15329,0.074,551
2019-10-31T02:19:16,42.805,6.029,CST-1368DR,7475,10475,15329,0.074,551
2019-10-31T02:22:18,42.805,6.029,CST-1368DR,7475,10474,15328,0.074,551
2019-10-31T02:25:20,42.805,6.029,CST-1368DR,7475,10475,15329,0.074,550
2019-10-31T02:28:21,42.805,6.029,CST-1368DR,7475,10470,15322,0.076,551
2019-10-31T02:31:23,42.805,6.029,CST-1368DR,7475,10474,15328,0.074,551
2019-10-31T02:34:24,42.805,6.029,CST-1368DR,7475,10473,15327,0.075,550
2019-10-31T02:37:26,42.805,6.029,CST-1368DR,7475,10474,15327,0.075,551
2019-10-31T02:40:28,42.805,6.029,CST-1368DR,7475,10474,15327,0.075,551
2019-10-31T02:43:29,42.805,6.029,CST-1368DR,7475,10473,15326,0.075,551
2019-10-31T02:46:31,42.805,6.029,CST-1368DR,7475,10474,15328,0.074,551
2019-10-31T02:49:33,42.805,6.029,CST-1368DR,7475,10472,15325,0.075,551
2019-10-31T02:52:34,42.805,6.029,CST-1368DR,7475,10473,15326,0.075,551
2019-10-31T02:55:36,42.805,6.029,CST-1368DR,7475,10474,15328,0.074,551
2019-10-31T02:58:37,42.805,6.029,CST-1368DR,7475,10474,15327,0.075,550
2019-10-31T03:01:39,42.805,6.029,CST-1368DR,7475,10473,15326,0.075,551
2019-10-31T03:04:41,42.805,6.029,CST-1368DR,7475,10471,15323,0.076,551
2019-10-31T03:07:43,42.805,6.029,CST-1368DR,7475,10471,15323,0.076,551
2019-10-31T03:10:44,42.805,6.029,CST-1368DR,7475,10474,15328,0.074,551
2019-10-31T03:13:46,42.805,6.029,CST-1368DR,7475,10474,15327,0.075,551
2019-10-31T03:16:48,42.805,6.029,CST-1368DR,7475,10473,15327,0.075,551
2019-10-31T03:19:49,42.805,6.029,CST-1368DR,7475,10473,15327,0.075,551
2019-10-31T03:22:51,42.805,6.029,CST-1368DR,7475,10473,15327,0.075,551
2019-10-31T03:25:52,42.805,6.029,CST-1368DR,7475,10473,15326,0.075,550
2019-10-31T03:28:54,42.805,6.029,CST-1368DR,7475,10474,15327,0.075,551
2019-10-31T03:31:56,42.805,6.029,CST-1368DR,7475,10473,15326,0.075,551
2019-10-31T03:34:57,42.805,6.029,CST-1368DR,7475,10473,15327,0.075,551
2019-10-31T03:37:59,42.805,6.029,CST-1368DR,7475,10474,15328,0.074,551
2019-10-31T03:41:01,42.805,6.029,CST-1368DR,7475,10473,15326,0.075,551
2019-10-31T03:44:02,42.805,6.029,CST-1368DR,7475,10474,15327,0.075,551
2019-10-31T03:47:04,42.805,6.029,CST-1368DR,7475,10473,15326,0.075,551
2019-10-31T03:50:06,42.805,6.029,CST-1368DR,7475,10473,15326,0.075,551
2019-10-31T03:53:07,42.805,6.029,CST-1368DR,7475,10473,15327,0.075,551
2019-10-31T03:56:09,42.805,6.029,CST-1368DR,7475,10473,15326,0.075,551
2019-10-31T03:59:11,42.805,6.029,CST-1368DR,7475,10473,15327,0.075,550
2019-10-31T04:02:12,42.805,6.029,CST-1368DR,7475,10474,15328,0.074,551
2019-10-31T04:05:14,42.805,6.029,CST-1368DR,7475,10473,15327,0.075,551
2019-10-31T04:08:15,42.805,6.029,CST-1368DR,7475,10473,15326,0.075,551
2019-10-31T04:11:17,42.805,6.029,CST-1368DR,7475,10474,15328,0.074,551
2019-10-31T04:14:19,42.805,6.029,CST-1368DR,7475,10473,15326,0.075,551
2019-10-31T04:17:20,42.805,6.029,CST-1368DR,7475,10472,15325,0.075,551
2019-10-31T04:20:22,42.805,6.029,CST-1368DR,7475,10474,15328,0.074,550
2019-10-31T04:23:24,42.805,6.029,CST-1368DR,7475,10473,15326,0.075,551
2019-10-31T04:26:25,42.805,6.029,CST-1368DR,7475,10474,15327,0.075,551
2019-10-31T04:29:27,42.805,6.029,CST-1368DR,7475,10474,15328,0.074,551
2019-10-31T04:32:29,42.805,6.029,CST-1368DR,7475,10474,15328,0.074,551
2019-10-31T04:35:30,42.805,6.029,CST-1368DR,7475,10474,15328,0.074,551
2019-10-31T04:38:32,42.805,6.029,CST-1368DR,7475,10474,15327,0.075,551
2019-10-31T04:41:33,42.805,6.029,CST-1368DR,7475,10472,15325,0.075,551
2019-10-31T04:44:35,42.805,6.029,CST-1368DR,7475,10472,15325,0.075,550
2019-10-31T04:47:37,42.805,6.029,CST-1368DR,7474,10473,15328,0.074,551
2019-10-31T04:50:38,42.805,6.029,CST-1368DR,7474,10473,15329,0.074,551
2019-10-31T04:53:40,42.805,6.029,CST-1368DR,7475,10472,15325,0.075,551
2019-10-31T04:56:42,42.805,6.029,CST-1368DR,7474,10473,15329,0.074,551
2019-10-31T04:59:43,42.805,6.029,CST-1368DR,7475,10473,15327,0.075,551
2019-10-31T05:02:45,42.805,6.029,CST-1368DR,7474,10473,15328,0.074,551
2019-10-31T05:05:47,42.805,6.029,CST-1368DR,7474,10473,15328,0.074,551
2019-10-31T05:08:48,42.805,6.029,CST-1368DR,7474,10473,15328,0.074,551
2019-10-31T05:11:50,42.805,6.029,CST-1368DR,7474,10472,15326,0.075,551
2019-10-31T05:14:52,42.805,6.029,CST-1368DR,7474,10473,15328,0.074,551
2019-10-31T05:17:53,42.805,6.029,CST-1368DR,7474,10471,15325,0.075,551
2019-10-31T05:20:55,42.805,6.029,CST-1368DR,7474,10472,15326,0.075,551
2019-10-31T05:23:57,42.805,6.029,CST-1368DR,7474,10471,15326,0.075,551
2019-10-31T05:26:58,42.805,6.029,CST-1368DR,7474,10472,15327,0.075,551
2019-10-31T05:30:00,42.805,6.029,CST-1368DR,7474,10473,15328,0.074,551
2019-10-31T05:33:01,42.805,6.029,CST-1368DR,7474,10471,15326,0.075,551
2019-10-31T05:36:03,42.805,6.029,CST-1368DR,7474,10473,15328,0.074,551
2019-10-31T05:39:05,42.805,6.029,CST-1368DR,7474,10472,15327,0.075,551
2019-10-31T05:42:06,42.805,6.029,CST-1368DR,7474,10471,15325,0.075,551
2019-10-31T05:45:08,42.805,6.029,CST-1368DR,7474,10472,15327,0.075,551
2019-10-31T05:48:10,42.805,6.029,CST-1368DR,7474,10471,15325,0.075,551
2019-10-31T05:51:11,42.805,6.029,CST-1368DR,7474,10471,15326,0.075,551
2019-10-31T05:54:13,42.805,6.029,CST-1368DR,7474,10472,15327,0.075,551
2019-10-31T05:57:14,42.805,6.029,CST-1368DR,7474,10471,15325,0.075,551
2019-10-31T06:00:16,42.805,6.029,CST-1368DR,7474,10471,15326,0.075,551
2019-10-31T06:03:18,42.805,6.029,CST-1368DR,7474,10471,15326,0.075,551
2019-10-31T06:06:19,42.805,6.029,CST-1368DR,7474,10471,15325,0.075,551
2019-10-31T06:09:21,42.805,6.029,CST-1368DR,7474,10472,15327,0.075,551
2019-10-31T06:12:23,42.805,6.029,CST-1368DR,7474,10471,15326,0.075,551
2019-10-31T06:15:24,42.805,6.029,CST-1368DR,7474,10471,15326,0.075,551
2019-10-31T06:18:26,42.805,6.029,CST-1368DR,7474,10472,15327,0.075,551
2019-10-31T06:21:28,42.805,6.029,CST-1368DR,7474,10471,15326,0.075,551
2019-10-31T06:24:29,42.805,6.029,CST-1368DR,7474,10471,15325,0.075,551
2019-10-31T06:27:31,42.805,6.029,CST-1368DR,7474,10471,15326,0.075,550
2019-10-31T06:30:32,42.805,6.029,CST-1368DR,7474,10471,15325,0.075,551
2019-10-31T06:33:34,42.805,6.029,CST-1368DR,7474,10471,15326,0.075,551
2019-10-31T06:36:36,42.805,6.029,CST-1368DR,7474,10471,15326,0.075,551
2019-10-31T06:39:37,42.805,6.029,CST-1368DR,7474,10471,15325,0.075,550
2019-10-31T06:42:39,42.805,6.029,CST-1368DR,7474,10472,15326,0.075,551
2019-10-31T06:45:41,42.805,6.029,CST-1368DR,7474,10471,15326,0.075,550
2019-10-31T06:48:42,42.805,6.029,CST-1368DR,7474,10471,15325,0.075,550
2019-10-31T06:51:44,42.805,6.029,CST-1368DR,7474,10471,15325,0.075,551
2019-10-31T06:54:46,42.805,6.029,CST-1368DR,7474,10471,15325,0.075,551
2019-10-31T06:57:47,42.805,6.029,CST-1368DR,7474,10472,15326,0.075,550
2019-10-31T07:00:49,42.805,6.029,CST-1368DR,7474,10472,15326,0.075,551
2019-10-31T07:03:51,42.805,6.029,CST-1368DR,7474,10470,15323,0.076,551
2019-10-31T07:06:52,42.805,6.029,CST-1368DR,7474,10473,15328,0.074,551
2019-10-31T07:09:54,42.805,6.029,CST-1368DR,7474,10471,15326,0.075,551
2019-10-31T07:12:56,42.805,6.029,CST-1368DR,7474,10471,15325,0.075,551
2019-10-31T07:15:57,42.805,6.029,CST-1368DR,7474,10472,15326,0.075,551
2019-10-31T07:18:59,42.805,6.029,CST-1368DR,7474,10471,15325,0.075,551
2019-10-31T07:22:01,42.805,6.029,CST-1368DR,7474,10471,15325,0.075,551
2019-10-31T07:25:02,42.805,6.029,CST-1368DR,7474,10471,15325,0.075,551
2019-10-31T07:28:04,42.805,6.029,CST-1368DR,7474,10471,15325,0.075,551
2019-10-31T07:31:06,42.805,6.029,CST-1368DR,7474,10471,15325,0.075,551
2019-10-31T07:34:07,42.805,6.029,CST-1368DR,7474,10471,15325,0.075,551
2019-10-31T07:37:09,42.805,6.029,CST-1368DR,7474,10471,15326,0.075,551
2019-10-31T07:40:10,42.805,6.029,CST-1368DR,7473,10470,15326,0.075,551
2019-10-31T07:43:12,42.805,6.029,CST-1368DR,7473,10472,15328,0.074,551
2019-10-31T07:46:14,42.805,6.029,CST-1368DR,7473,10469,15324,0.076,551
2019-10-31T07:49:15,42.805,6.029,CST-1368DR,7474,10472,15326,0.075,551
2019-10-31T07:52:17,42.805,6.029,CST-1368DR,7474,10471,15325,0.075,551
2019-10-31T07:55:19,42.805,6.029,CST-1368DR,7473,10470,15326,0.075,551
2019-10-31T07:58:20,42.805,6.029,CST-1368DR,7473,10471,15327,0.075,551
2019-10-31T08:01:22,42.805,6.029,CST-1368DR,7473,10471,15327,0.075,551
2019-10-31T08:04:24,42.805,6.029,CST-1368DR,7473,10470,15326,0.075,551
2019-10-31T08:07:25,42.805,6.029,CST-1368DR,7473,10471,15327,0.075,551
2019-10-31T08:10:27,42.805,6.029,CST-1368DR,7473,10471,15327,0.075,551
2019-10-31T08:13:28,42.805,6.029,CST-1368DR,7473,10470,15326,0.075,551
2019-10-31T08:16:30,42.805,6.029,CST-1368DR,7473,10471,15328,0.074,551
2019-10-31T08:19:32,42.805,6.029,CST-1368DR,7473,10470,15326,0.075,551
2019-10-31T08:22:33,42.805,6.029,CST-1368DR,7473,10470,15326,0.075,551
2019-10-31T08:25:35,42.805,6.029,CST-1368DR,7473,10471,15327,0.075,551
2019-10-31T08:28:37,42.805,6.029,CST-1368DR,7473,10471,15327,0.075,551
2019-10-31T08:31:38,42.805,6.029,CST-1368DR,7473,10472,15328,0.074,551
2019-10-31T08:34:40,42.805,6.029,CST-1368DR,7473,10470,15326,0.075,551
2019-10-31T08:37:42,42.805,6.029,CST-1368DR,7473,10471,15327,0.075,551
2019-10-31T08:40:43,42.805,6.029,CST-1368DR,7473,10471,15328,0.074,550
2019-10-31T08:43:45,42.805,6.029,CST-1368DR,7473,10471,15327,0.075,551
2019-10-31T08:46:47,42.805,6.029,CST-1368DR,7473,10471,15327,0.075,551
2019-10-31T08:49:48,42.805,6.029,CST-1368DR,7473,10471,15327,0.075,551
2019-10-31T08:52:50,42.805,6.029,CST-1368DR,7473,10470,15325,0.075,551
2019-10-31T08:55:52,42.805,6.029,CST-1368DR,7473,10471,15327,0.075,550
2019-10-31T08:58:53,42.805,6.029,CST-1368DR,7473,10471,15327,0.075,551
2019-10-31T09:01:55,42.805,6.029,CST-1368DR,7473,10470,15325,0.075,551
2019-10-31T09:04:56,42.805,6.029,CST-1368DR,7473,10470,15326,0.075,550
2019-10-31T09:07:58,42.805,6.029,CST-1368DR,7473,10470,15326,0.075,551
2019-10-31T09:11:00,42.805,6.029,CST-1368DR,7473,10471,15327,0.075,551
2019-10-31T09:14:01,42.805,6.029,CST-1368DR,7473,10471,15327,0.075,551
2019-10-31T09:17:03,42.805,6.029,CST-1368DR,7473,10470,15326,0.075,551
2019-10-31T09:20:05,42.805,6.029,CST-1368DR,7473,10469,15324,0.076,551
2019-10-31T09:23:07,42.805,6.029,CST-1368DR,7473,10471,15327,0.075,551
2019-10-31T09:26:08,42.805,6.029,CST-1368DR,7473,10471,15327,0.075,551
2019-10-31T09:29:10,42.805,6.029,CST-1368DR,7473,10471,15327,0.075,551
2019-10-31T09:32:12,42.805,6.029,CST-1368DR,7473,10471,15327,0.075,551
2019-10-31T09:35:13,42.805,6.029,CST-1368DR,7473,10470,15326,0.075,551
2019-10-31T09:38:15,42.805,6.029,CST-1368DR,7473,10471,15327,0.075,551
2019-10-31T09:41:17,42.805,6.029,CST-1368DR,7473,10471,15327,0.075,551
2019-10-31T09:44:18,42.805,6.029,CST-1368DR,7473,10470,15325,0.075,551
2019-10-31T09:47:20,42.805,6.029,CST-1368DR,7473,10470,15326,0.075,551
2019-10-31T09:50:22,42.805,6.029,CST-1368DR,7473,10471,15327,0.075,551
2019-10-31T09:53:23,42.805,6.029,CST-1368DR,7473,10471,15327,0.075,551
2019-10-31T09:56:25,42.805,6.029,CST-1368DR,7473,10471,15327,0.075,551
2019-10-31T09:59:27,42.805,6.029,CST-1368DR,7473,10471,15327,0.075,551
2019-10-31T10:02:28,42.805,6.029,CST-1368DR,7473,10471,15327,0.075,551
2019-10-31T10:05:30,42.805,6.029,CST-1368DR,7473,10470,15326,0.075,551
2019-10-31T10:08:31,42.805,6.029,CST-1368DR,7473,10470,15325,0.075,551
2019-10-31T10:11:33,42.805,6.029,CST-1368DR,7473,10469,15324,0.076,551
2019-10-31T10:14:35,42.805,6.029,CST-1368DR,7473,10470,15326,0.075,551
2019-10-31T10:17:36,42.805,6.029,CST-1368DR,7473,10470,15326,0.075,550
2019-10-31T10:20:38,42.805,6.029,CST-1368DR,7473,10470,15326,0.075,551
2019-10-31T10:23:40,42.805,6.029,CST-1368DR,7473,10468,15323,0.076,551
2019-10-31T10:26:41,42.805,6.029,CST-1368DR,7473,10470,15326,0.075,551
2019-10-31T10:29:43,42.805,6.029,CST-1368DR,7473,10470,15325,0.075,551
2019-10-31T10:32:45,42.805,6.029,CST-1368DR,7473,10470,15326,0.075,551
2019-10-31T10:35:46,42.805,6.029,CST-1368DR,7473,10468,15323,0.076,551
2019-10-31T10:38:48,42.805,6.029,CST-1368DR,7473,10467,15322,0.076,551
2019-10-31T10:41:49,42.805,6.029,CST-1368DR,7473,10469,15325,0.075,551
2019-10-31T10:44:51,42.805,6.029,CST-1368DR,7473,10470,15326,0.075,550
2019-10-31T10:47:53,42.805,6.029,CST-1368DR,7473,10469,15325,0.075,551
2019-10-31T10:50:54,42.805,6.029,CST-1368DR,7473,10469,15325,0.075,551
2019-10-31T10:53:56,42.805,6.029,CST-1368DR,7473,10469,15324,0.076,551
2019-10-31T10:56:58,42.805,6.029,CST-1368DR,7473,10470,15326,0.075,551
2019-10-31T10:59:59,42.805,6.029,CST-1368DR,7473,10469,15325,0.075,551
2019-10-31T11:03:01,42.805,6.029,CST-1368DR,7473,10470,15326,0.075,551
2019-10-31T11:06:03,42.805,6.029,CST-1368DR,7473,10470,15325,0.075,551
2019-10-31T11:09:04,42.805,6.029,CST-1368DR,7473,10470,15325,0.075,551
2019-10-31T11:12:06,42.805,6.029,CST-1368DR,7473,10469,15325,0.075,551
2019-10-31T11:15:07,42.805,6.029,CST-1368DR,7473,10469,15325,0.075,551
2019-10-31T11:18:09,42.805,6.029,CST-1368DR,7473,10470,15325,0.075,551
2019-10-31T11:21:11,42.805,6.029,CST-1368DR,7473,10469,15325,0.075,551
2019-10-31T11:24:12,42.805,6.029,CST-1368DR,7473,10470,15325,0.075,551
2019-10-31T11:27:14,42.805,6.029,CST-1368DR,7473,10468,15323,0.076,551
2019-10-31T11:30:16,42.805,6.029,CST-1368DR,7472,10469,15327,0.075,551
2019-10-31T11:33:17,42.805,6.029,CST-1368DR,7472,10469,15326,0.075,551
2019-10-31T11:36:19,42.805,6.029,CST-1368DR,7473,10468,15323,0.076,551
2019-10-31T11:39:21,42.805,6.029,CST-1368DR,7472,10469,15326,0.075,551
2019-10-31T11:42:22,42.805,6.029,CST-1368DR,7472,10469,15326,0.075,551
2019-10-31T11:45:24,42.805,6.029,CST-1368DR,7473,10467,15321,0.076,550
2019-10-31T11:48:26,42.805,6.029,CST-1368DR,7473,10468,15323,0.076,551
2019-10-31T11:51:27,42.805,6.029,CST-1368DR,7472,10469,15326,0.075,550
2019-10-31T11:54:29,42.805,6.029,CST-1368DR,7472,10468,15324,0.076,551
2019-10-31T11:57:30,42.805,6.029,CST-1368DR,7472,10469,15326,0.075,551
2019-10-31T12:00:32,42.805,6.029,CST-1368DR,7472,10469,15326,0.075,551
2019-10-31T12:03:34,42.805,6.029,CST-1368DR,7472,10468,15325,0.075,551
2019-10-31T12:06:36,42.805,6.029,CST-1368DR,7472,10468,15325,0.075,551
2019-10-31T12:09:37,42.805,6.029,CST-1368DR,7472,10468,15324,0.076,551
2019-10-31T12:12:39,42.805,6.029,CST-1368DR,7472,10469,15326,0.075,551
2019-10-31T12:15:40,42.805,6.029,CST-1368DR,7472,10468,15325,0.075,551
2019-10-31T12:18:42,42.805,6.029,CST-1368DR,7472,10468,15325,0.075,551
2019-10-31T12:21:44,42.805,6.029,CST-1368DR,7472,10468,15325,0.075,551
2019-10-31T12:24:45,42.805,6.029,CST-1368DR,7472,10466,15321,0.076,551
2019-10-31T12:27:47,42.805,6.029,CST-1368DR,7472,10466,15322,0.076,551
2019-10-31T12:30:49,42.805,6.029,CST-1368DR,7472,10468,15324,0.076,551
2019-10-31T12:33:50,42.805,6.029,CST-1368DR,7472,10467,15324,0.076,551
2019-10-31T12:36:52,42.805,6.029,CST-1368DR,7472,10466,15321,0.076,551
2019-10-31T12:39:54,42.805,6.029,CST-1368DR,7472,10468,15324,0.076,551
2019-10-31T12:42:56,42.805,6.029,CST-1368DR,7472,10466,15322,0.076,551
2019-10-31T12:45:57,42.805,6.029,CST-1368DR,7472,10467,15323,0.076,551
2019-10-31T12:48:59,42.805,6.029,CST-1368DR,7472,10468,15325,0.075,551
2019-10-31T12:52:01,42.805,6.029,CST-1368DR,7472,10467,15323,0.076,551
2019-10-31T12:55:02,42.805,6.029,CST-1368DR,7472,10468,15325,0.075,551
2019-10-31T12:58:04,42.805,6.029,CST-1368DR,7472,10466,15322,0.076,551
2019-10-31T13:01:06,42.805,6.029,CST-1368DR,7472,10467,15323,0.076,551
2019-10-31T13:04:07,42.805,6.029,CST-1368DR,7472,10468,15325,0.075,551
2019-10-31T13:07:09,42.805,6.029,CST-1368DR,7472,10466,15322,0.076,551
2019-10-31T13:10:11,42.805,6.029,CST-1368DR,7472,10465,15320,0.077,551
2019-10-31T13:13:12,42.805,6.029,CST-1368DR,7472,10466,15321,0.076,551
2019-10-31T13:16:14,42.805,6.029,CST-1368DR,7472,10467,15323,0.076,551
2019-10-31T13:19:16,42.805,6.029,CST-1368DR,7472,10467,15323,0.076,551
2019-10-31T13:22:17,42.805,6.029,CST-1368DR,7472,10467,15323,0.076,551
2019-10-31T13:25:19,42.805,6.029,CST-1368DR,7472,10464,15319,0.077,551
2019-10-31T13:28:21,42.805,6.029,CST-1368DR,7472,10467,15324,0.076,551
2019-10-31T13:31:22,42.805,6.029,CST-1368DR,7472,10466,15322,0.076,551
2019-10-31T13:34:24,42.805,6.029,CST-1368DR,7472,10467,15323,0.076,551
2019-10-31T13:37:26,42.805,6.029,CST-1368DR,7472,10467,15323,0.076,551
2019-10-31T13:40:27,42.805,6.029,CST-1368DR,7472,10465,15321,0.076,551
2019-10-31T13:43:29,42.805,6.029,CST-1368DR,7472,10467,15323,0.076,551
2019-10-31T13:46:31,42.805,6.029,CST-1368DR,7472,10467,15324,0.076,551
2019-10-31T13:49:32,42.805,6.029,CST-1368DR,7472,10460,15314,0.078,551
2019-10-31T13:52:34,42.805,6.029,CST-1368DR,7472,10467,15324,0.076,551
2019-10-31T13:55:35,42.805,6.029,CST-1368DR,7472,10466,15322,0.076,551
2019-10-31T13:58:37,42.805,6.029,CST-1368DR,7472,10460,15314,0.078,551
2019-10-31T14:01:39,42.805,6.029,CST-1368DR,7472,10467,15323,0.076,551
2019-10-31T14:04:40,42.805,6.029,CST-1368DR,7472,10468,15324,0.076,551
2019-10-31T14:07:42,42.805,6.029,CST-1368DR,7471,10465,15322,0.076,551
2019-10-31T14:10:44,42.805,6.029,CST-1368DR,7472,10467,15324,0.076,551
2019-10-31T14:13:45,42.805,6.029,CST-1368DR,7472,10467,15323,0.076,551
2019-10-31T14:16:47,42.805,6.029,CST-1368DR,7472,10467,15323,0.076,551
2019-10-31T14:19:49,42.805,6.029,CST-1368DR,7472,10467,15324,0.076,551
2019-10-31T14:22:51,42.805,6.029,CST-1368DR,7472,10466,15322,0.076,551
2019-10-31T14:25:52,42.805,6.029,CST-1368DR,7472,10467,15323,0.076,550
2019-10-31T14:28:54,42.805,6.029,CST-1368DR,7472,10467,15324,0.076,551
2019-10-31T14:31:55,42.805,6.029,CST-1368DR,7472,10466,15322,0.076,550
2019-10-31T14:34:57,42.805,6.029,CST-1368DR,7471,10466,15324,0.076,551
2019-10-31T14:37:59,42.805,6.029,CST-1368DR,7472,10467,15323,0.076,551
2019-10-31T14:41:00,42.805,6.029,CST-1368DR,7471,10467,15325,0.075,551
2019-10-31T14:44:02,42.805,6.029,CST-1368DR,7471,10467,15325,0.075,551
2019-10-31T14:47:04,42.805,6.029,CST-1368DR,7471,10467,15325,0.075,551
2019-10-31T14:50:05,42.805,6.029,CST-1368DR,7471,10466,15324,0.076,550
2019-10-31T14:53:07,42.805,6.029,CST-1368DR,7471,10468,15326,0.075,551
2019-10-31T14:56:09,42.805,6.029,CST-1368DR,7471,10467,15325,0.075,551
2019-10-31T14:59:10,42.805,6.029,CST-1368DR,7471,10467,15325,0.075,551
2019-10-31T15:02:12,42.805,6.029,CST-1368DR,7471,10464,15321,0.076,551
2019-10-31T15:05:13,42.805,6.029,CST-1368DR,7471,10466,15324,0.076,551
2019-10-31T15:08:15,42.805,6.029,CST-1368DR,7471,10466,15324,0.076,551
2019-10-31T15:11:17,42.805,6.029,CST-1368DR,7471,10467,15325,0.075,551
2019-10-31T15:14:18,42.805,6.029,CST-1368DR,7471,10466,15324,0.076,551
2019-10-31T15:17:20,42.805,6.029,CST-1368DR,7471,10466,15323,0.076,551
2019-10-31T15:20:22,42.805,6.029,CST-1368DR,7471,10466,15324,0.076,551
2019-10-31T15:23:23,42.805,6.029,CST-1368DR,7471,10464,15320,0.077,551
2019-10-31T15:26:25,42.805,6.029,CST-1368DR,7471,10466,15324,0.076,551
2019-10-31T15:29:26,42.805,6.029,CST-1368DR,7471,10466,15324,0.076,550
2019-10-31T15:32:28,42.805,6.029,CST-1368DR,7471,10467,15326,0.075,551
2019-10-31T15:35:30,42.805,6.029,CST-1368DR,7471,10465,15322,0.076,551
2019-10-31T15:38:31,42.805,6.029,CST-1368DR,7471,10467,15325,0.075,551
2019-10-31T15:41:33,42.805,6.029,CST-1368DR,7471,10466,15324,0.076,551
2019-10-31T15:44:35,42.805,6.029,CST-1368DR,7471,10466,15323,0.076,551
2019-10-31T15:47:36,42.805,6.029,CST-1368DR,7471,10467,15325,0.075,551
2019-10-31T15:50:38,42.805,6.029,CST-1368DR,7471,10464,15321,0.076,551
2019-10-31T15:53:40,42.805,6.029,CST-1368DR,7471,10466,15324,0.076,550
2019-10-31T15:56:41,42.805,6.029,CST-1368DR,7471,10462,15318,0.077,551
2019-10-31T15:59:43,42.805,6.029,CST-1368DR,7471,10466,15324,0.076,551
2019-10-31T16:02:44,42.805,6.029,CST-1368DR,7471,10467,15325,0.075,551
2019-10-31T16:05:46,42.805,6.029,CST-1368DR,7471,10466,15324,0.076,551
2019-10-31T16:08:48,42.805,6.029,CST-1368DR,7471,10466,15323,0.076,551
2019-10-31T16:11:50,42.805,6.029,CST-1368DR,7471,10467,15325,0.075,551
2019-10-31T16:14:51,42.805,6.029,CST-1368DR,7471,10465,15322,0.076,551
2019-10-31T16:17:53,42.805,6.029,CST-1368DR,7471,10466,15324,0.076,551
2019-10-31T16:20:54,42.805,6.029,CST-1368DR,7471,10466,15324,0.076,551
2019-10-31T16:23:56,42.805,6.029,CST-1368DR,7471,10466,15324,0.076,551
2019-10-31T16:26:58,42.805,6.029,CST-1368DR,7471,10465,15322,0.076,551
2019-10-31T16:29:59,42.805,6.029,CST-1368DR,7471,10466,15324,0.076,551
2019-10-31T16:33:01,42.805,6.029,CST-1368DR,7471,10466,15324,0.076,551
2019-10-31T16:36:03,42.805,6.029,CST-1368DR,7471,10466,15324,0.076,551